Regional Weather Roundup
Issued by NWS

Home | Current Version | Previous Version | Text Only | Print | Product List | Glossary On
Versions: 1 2 3 4 5 6 7 8 9 10 11 12 13 14 15 16 17 18 19 20 21 22 23 24 25 26 27 28 29 30 31 32 33 34 35 36 37 38 39 40 41 42 43 44 45 46 47 48 49 50
000
ASUS43 KBIS 271431
RWRND
NORTH DAKOTA REGIONAL WEATHER ROUNDUP
NATIONAL WEATHER SERVICE EASTERN NORTH DAKOTA/GRAND FORKS ND
900 AM CDT SAT MAY 27 2017

  NOTE: "FAIR" INDICATES FEW OR NO CLOUDS BELOW 12,000 FEET WITH NO
  SIGNIFICANT WEATHER AND/OR OBSTRUCTIONS TO VISIBILITY.

NDZ001>003-009>011-017-271500-
...NORTHWEST NORTH DAKOTA...

CITY           SKY/WX    TMP DP  RH WIND       PRES   REMARKS
WILLISTON      FAIR      59  42  53 W13       29.87R
MINOT          FAIR      60  42  51 W12       29.81S
MINOT AFB      FAIR      61  42  50 W16       29.80S
$$

NDZ018>021-031>035-040>046-271500-
...SOUTHWEST NORTH DAKOTA...

CITY           SKY/WX    TMP DP  RH WIND       PRES   REMARKS
BISMARCK       FAIR      59  41  51 VRB3      29.89S
DICKINSON      CLOUDY    54  37  52 W13       29.91S
GARRISON         N/A     57  41  55 W17       29.85S
HETTINGER      FAIR      56  39  53 W12       29.96S
$$

NDZ004>008-012>016-024-026-027-054-271500-
...NORTHEAST NORTH DAKOTA...

CITY           SKY/WX    TMP DP  RH WIND       PRES   REMARKS
GRAND FORKS    FAIR      64  46  52 W12       29.77S
GRAND FORKS AF FAIR      64  45  50 W8        29.78S
DEVILS LAKE    FAIR      58  44  60 W18       29.82R
$$

NDZ022-023-025-028>030-036>039-047>053-271500-
...SOUTHEAST NORTH DAKOTA...

CITY           SKY/WX    TMP DP  RH WIND       PRES   REMARKS
JAMESTOWN      FAIR      62  44  51 W10       29.84S
FARGO          FAIR      63  46  54 SW9       29.82S
WAHPETON       FAIR      68  43  40 W17       29.85S
$$




USA.gov is the U.S. government's official web portal to all federal, state and local government web resources and services.